Погода в Мингечауре

Азербайджан     40°46′14″N   47°03′01″E
темп.,
°C
ветер,
м/с
пор.,
м/с
влажн.,
%
обл.,
%
осадки,
мм/ч
давл.,
гПа
погр.,
м
17 июня, чт
чт1701:00+25юв510560 0.0 1007337
04:00+23ююв24660 0.0 100791
07:00+24св01680 0.0 1007222
10:00+28св13520 0.0 1008784
13:00+32ссз35380 0.0 10061482
16:00+35с34320 0.0 10041833
19:00+33ссз55340 0.0 1004241
22:00+30ю22400 0.0 100721
18 июня, пт
пт1801:00+26сз58520 0.0 1009178
04:00+24зсз610590 0.0 1010227
07:00+24зсз67610 0.0 1012253
10:00+28з23470 0.0 1011707
13:00+33в35310 0.0 10101918
16:00+37ююв78190 0.0 10082199
19:00+36ю69200 0.0 10081996
22:00+30ююв712300 0.0 1011288
19 июня, сб
сб1901:00+26в710420 0.0 1012185
04:00+24вюв59540 0.0 1013164
07:00+25вюв58520 0.0 1014218
10:00+32юв56270 0.0 1012744
13:00+37юв68170 0.0 10101530
16:00+39ююв811140 0.0 10082049
19:00+38ююв912150 0.0 10082225
22:00+31ююв713290 0.0 1010261
20 июня, вс
вс2001:00+26вюв611443 0.0 1011223
04:00+24вюв595866 0.0 1011188
07:00+25вюв68590 0.0 1012221
10:00+32юв79320 0.0 1012799
13:00+36юв79230 0.0 10101483
16:00+39юв911190 0.0 10082104
19:00+36юв1012190 0.0 10091392
22:00+29ююв814290 0.0 1011349
21 июня, пн
пн2101:00+25вюв48370 0.0 1012133
04:00+23вюв33440 0.0 101237
07:00+25всв11410 0.0 101399
10:00+31юв35260 0.0 1012848
13:00+37юв78170 0.0 10101578
16:00+39юв910140 0.0 10082121
19:00+36юв910140 0.0 10091378
22:00+29юв612210 0.0 1011246